Saint Cloud, MN

1:30 PM CST on December 05, 2016 (GMT -0600)
Saint Cloud Regional

Weather History for KSTC - July, 2013

Change the Weather History Date:

Monday, July 1, 2013

  Actual Average Record
Temperature  
Mean Temperature 70 °F 70 °F  
Max Temperature 84 °F 81 °F 98 °F (1921)
Min Temperature 55 °F 58 °F 40 °F (1969)
Degree Days  
Heating Degree Days 0 1  
Month to date heating degree days 0 1  
Since 1 June heating degree days 87 79  
Since 1 July heating degree days 0 1  
Cooling Degree Days 5 5  
Month to date cooling degree days 5 5  
Year to date cooling degree days 115 125  
Since 1 June cooling degree days 104 100  
Growing Degree Days 18 (Base 50)    
Moisture  
Dew Point 56 °F    
Average Humidity 65    
Maximum Humidity 93    
Minimum Humidity 37    
Precipitation  
Precipitation 0.00 in 0.12 in 1.28 in (1962)
Month to date precipitation 0.00 0.12  
Year to date precipitation 18.05 12.60  
Snow  
Snow 0.00 in 0.00 in 0.00 in ()
Month to date snowfall 0.0 0.0  
Since 1 June snowfall 0.0 0.0  
Since 1 July snowfall 0.0 0.0  
Snow Depth 0.00 in    
Sea Level Pressure  
Sea Level Pressure 30.19 in    
Wind  
Wind Speed 3 mph (NNE)    
Max Wind Speed 12 mph    
Max Gust Speed 16 mph    
Visibility 9 miles    
Events      
T = Trace of Precipitation, MM = Missing Value Source: NWS Daily Summary

Daily Weather History Graph

Daily Weather History Graph

Search for Another Location

Airport or City:

Trip Planner

Search our weather history database for the weather conditions in past years. The results will help you decide how hot, cold, wet, or windy it might be!

Date:

Astronomy

Jul. 01, 2013 Rise Set
Actual Time 5:31 AM CDT 9:08 PM CDT
Civil Twilight 4:53 AM CDT 9:46 PM CDT
Nautical Twilight 4:03 AM CDT 10:36 PM CDT
Astronomical Twilight 2:55 AM CDT 11:43 PM CDT
Moon 1:13 AM CDT (7/1) 3:14 PM CDT (7/1)
Length of Visible Light 16h 52m
Length of Day
15h 37m
Waning Crescent, 35% of the Moon is Illuminated
Jul 1
Waning Crescent
Jul 8
New
Jul 15
First Quarter
Jul 22
Full
Jul 29
Last Quarter

Hourly Weather History & Observations

Time (CDT) Temp. Heat Index Dew Point Humidity Pressure Visibility Wind Dir Wind Speed Gust Speed Precip Events Conditions
12:53 AM 62.1 °F - 57.0 °F 84% 30.16 in 9.0 mi Calm Calm - N/A   Clear
1:53 AM 61.0 °F - 55.9 °F 83% 30.16 in 10.0 mi NW 4.6 mph - N/A   Clear
2:53 AM 62.1 °F - 55.9 °F 80% 30.17 in 10.0 mi Calm Calm - N/A   Clear
3:53 AM 57.9 °F - 55.0 °F 90% 30.17 in 10.0 mi Calm Calm - N/A   Clear
4:53 AM 57.0 °F - 55.0 °F 93% 30.18 in 8.0 mi Calm Calm - N/A   Clear
5:53 AM 55.9 °F - 54.0 °F 93% 30.19 in 7.0 mi NW 3.5 mph - N/A   Clear
6:53 AM 59.0 °F - 57.0 °F 93% 30.21 in 7.0 mi Calm Calm - N/A   Clear
7:53 AM 64.9 °F - 57.9 °F 78% 30.21 in 10.0 mi Calm Calm - N/A   Clear
8:53 AM 71.1 °F - 57.9 °F 63% 30.22 in 9.0 mi Calm Calm - N/A   Clear
9:53 AM 75.0 °F - 60.1 °F 60% 30.22 in 8.0 mi Variable 3.5 mph - N/A   Scattered Clouds
10:53 AM 79.0 °F - 60.1 °F 52% 30.22 in 8.0 mi NNW 4.6 mph - N/A   Scattered Clouds
11:53 AM 81.0 °F 80.8 °F 55.9 °F 42% 30.21 in 7.0 mi NNW 5.8 mph - N/A   Clear
12:53 PM 82.9 °F 81.8 °F 53.1 °F 36% 30.20 in 7.0 mi NNW 6.9 mph - N/A   Scattered Clouds
1:53 PM 82.9 °F 82.0 °F 55.0 °F 38% 30.20 in 7.0 mi North 8.1 mph - N/A   Mostly Cloudy
2:53 PM 81.0 °F 80.7 °F 55.0 °F 41% 30.19 in 7.0 mi East 6.9 mph - N/A   Mostly Cloudy
3:53 PM 81.0 °F 80.5 °F 54.0 °F 39% 30.19 in 8.0 mi ENE 6.9 mph - N/A   Partly Cloudy
4:53 PM 82.9 °F 81.9 °F 54.0 °F 37% 30.18 in 9.0 mi NE 6.9 mph - N/A   Mostly Cloudy
5:53 PM 81.0 °F 80.5 °F 54.0 °F 39% 30.18 in 10.0 mi ENE 9.2 mph - N/A   Clear
6:53 PM 79.0 °F - 53.1 °F 40% 30.18 in 10.0 mi East 9.2 mph - N/A   Clear
7:53 PM 77.0 °F - 54.0 °F 45% 30.18 in 10.0 mi East 5.8 mph - N/A   Clear
8:53 PM 73.0 °F - 55.0 °F 53% 30.18 in 10.0 mi Calm Calm - N/A   Clear
9:53 PM 66.0 °F - 55.0 °F 68% 30.19 in 10.0 mi Calm Calm - N/A   Clear
10:53 PM 62.1 °F - 57.0 °F 84% 30.19 in 10.0 mi Calm Calm - N/A   Clear
11:53 PM 61.0 °F - 55.9 °F 83% 30.19 in 10.0 mi Calm Calm - N/A   Clear